sat.trackr.live / text

‹ back to catalog

STARLINK-1094

NORAD 44941 · 2020-001AD

PAYLOAD ACTIVE UNKNOWN

§ Identity

Operator
Country
US
Launch date
2020-01-07
Launch site
AFETR
Launch vehicle
Mass (kg)
RCS (m²)

Purposes: comms

External: N2YO · Heavens-Above · Gunter

§ Orbital elements

Epoch: 2026-05-25T03:49:25.724064Z

Period
92.76 min
Inclination
53.1543°
Eccentricity
0.0002764
Mean motion
15.52327931 rev/d
Perigee alt
408.1 km
Apogee alt
411.8 km
Semi-major
6,788.1 km
B*
1.2714e-3
RAAN
319.2748°
Arg perigee
277.5185°
Mean anomaly
82.5511°
Rev number
35,201

§ Raw data

STARLINK-10941 44941U 20001AD  26145.15932551  .00079066  00000+0  12714-2 0  99982 44941  53.1543 319.2748 0002764 277.5185  82.5511 15.52327931352014

JSON: /api/v1/satellites/44941 · /tle

For live sub-satellite position, see the globe view (requires WebGL).

§ Visibility from observer

Set your observer location to see the next 7 days of passes ≥ 10°. The values pass through the URL so the page stays shareable.

No JS? Fill the form by hand. The geolocation button needs JavaScript.